Location: Unspecified
(0.0000°N, 0.0000°E)
Time: 16:00:19
(UTC+00:00)

Envisat - Pass Details

Date: 27 October 2021
Orbit: 764 x 766 km, 98.2° (Epoch: 29 November)

Event Time Altitude Azimuth Distance (km) Brightness Sun altitude
Rises 04:18:47 0° 22° (NNE) 3,213 6.3 -20.7°
Reaches altitude 10° 04:21:09 10° 28° (NNE) 2,290 5.6 -20.1°
Maximum altitude 04:26:00 48° 102° (ESE) 988 4.0 -19.0°
Drops below altitude 10° 04:30:52 10° 176° (S) 2,299 5.7 -17.8°
Sets 04:33:14 0° 181° (S) 3,227 6.4 -17.2°
